Погода в Луангнамтха

Лаос     21°00′09″N   101°24′27″E
темп.,
°C
ветер,
м/с
пор.,
м/с
влажн.,
%
обл.,
%
осадки,
мм/ч
давл.,
гПа
погр.,
м
24 июня, чт
чт2401:00+22ююз1194100 0.1 100721
04:00+21ю1194100 0.0 100638
07:00+21ююв1195100 0.0 100745
10:00+23ююв1290100 0.0 1007246
13:00+24ююв1381100 0.1 1006615
16:00+25ююв1273100 0.0 1004754
19:00+22вюв118978 0.1 100514
22:00+22юв009396 0.0 100721
25 июня, пт
пт2501:00+21ююв0094100 0.0 100625
04:00+20в00100100 2.1 100526
07:00+21ююв0110088 4.9 100686
10:00+23ююз139482 0.9 1006451
13:00+25ю149166 3.9 1004732
16:00+24ююз149765 3.8 1003373
19:00+22ююз119894 5.2 100422
22:00+21ююв1199100 0.0 100721
26 июня, сб
сб2601:00+20ююв11100100 0.2 100728
04:00+20ююв0110090 0.4 100644
07:00+21ююв119989 0.5 1007142
10:00+22ю1291100 0.2 1008368
13:00+29ююз2459100 0.6 10051374
16:00+25ю259032 1.5 1004700
19:00+22ю119881 3.2 100620
22:00+21ююз1199100 0.0 100935
27 июня, вс
вс2701:00+20ю11100100 0.0 100831
04:00+20ююв1110060 0.0 100835
07:00+21ююв119974 0.0 1009142
10:00+25ю137949 0.4 1008786
13:00+29зюз1362100 2.4 10051340
16:00+28зюз1379100 3.0 1003654
19:00+23ююз2589100 4.1 1005273
22:00+21ююз1198100 0.1 100731
28 июня, пн
пн2801:00+20ююз1199100 0.1 100620
04:00+20ююз11100100 0.0 100529
07:00+21ю1298100 0.0 1007163
10:00+23ююз1388100 0.1 1007486
13:00+27ююз2467100 0.2 10041056
16:00+28юз3559100 0.0 10021263
19:00+24ююз1480100 0.0 1004184
22:00+22ююз1291100 0.3 100651